Wind_Speed
10 7 11 3 13 21 19 17 17 9 7 9 8 6 19 24 31 20 20 20 20 18 19 21 18 18 22 21 19 18 18 15 16 14 10 15 13 14 13 14 14 11 10 10
3 12 20 11 20 17 14 6 20 8 17 1 5 8 16 20 26 18 19 22 19 19 20 24 20 20 23 23 23 22 21 22 18 17 16 17 13 15 17 15 20 20 14 13
10 9 17 11 9 13 13 16 13 9 14 6 17 12 11 18 17 21 24 21 19 21 21 27 25 25 23 25 25 23 23 23 22 19 15 16 18 18 6 11 12 15 15 15
19 14 13 13 3 10 5 7 15 19 13 6 12 3 3 13 16 15 12 19 22 21 20 27 28 26 25 25 26 24 18 22 23 19 19 15 14 18 14 17 15 14 14 13
13 6 15 2 6 8 7 19 21 26 26 13 1 10 5 14 14 24 17 19 19 23 23 25 28 30 27 26 29 29 24 19 21 20 22 17 18 19 20 15 21 10 14 10
16 7 8 8 9 8 8 19 24 22 7 5 5 5 5 6 6 7 17 23 17 18 23 24 27 28 25 25 29 31 29 25 20 21 18 23 21 18 20 19 26 8 7 16
10 12 16 8 16 15 8 14 10 6 2 8 8 8 10 10 25 22 8 10 14 17 20 20 18 23 28 23 25 32 31 25 22 19 22 23 22 18 13 16 17 18 12 9
13 13 22 7 7 19 6 13 8 16 16 5 5 6 7 22 33 34 8 9 6 1 4 18 21 23 22 20 22 22 37 29 19 16 14 10 1 10 17 13 11 10 10 10
6 11 21 13 14 30 12 12 15 17 18 16 7 6 5 10 17 26 12 11 13 16 17 20 17 18 23 24 24 24 27 24 15 13 13 7 3 17 22 5 5 5 5 1
8 3 20 20 14 8 10 12 11 11 6 11 16 5 10 14 16 24 10 6 12 14 19 19 18 18 21 24 25 20 15 16 20 16 10 7 6 13 8 8 8 11 8 6
7 12 18 19 12 16 9 12 12 12 9 10 13 6 9 24 26 21 19 12 10 12 15 17 18 17 22 17 13 11 17 18 13 7 8 9 8 4 3 6 5 4 2 3
7 13 13 16 16 16 11 15 16 10 12 12 12 4 15 22 22 20 18 15 13 14 16 18 16 17 16 15 13 15 14 10 7 8 8 6 7 5 5 8 3 4 6 5
9 10 9 13 13 8 16 13 13 11 14 15 13 6 15 21 16 12 17 13 13 15 18 20 18 16 16 15 15 13 9 6 7 7 6 6 8 7 8 7 6 5 3 5
6 14 15 14 21 17 11 19 14 13 12 15 15 5 11 16 14 15 15 17 15 16 18 18 17 16 16 14 11 8 5 4 4 5 8 6 8 6 5 4 2 4 6 6
5 14 16 18 21 22 19 20 21 21 18 16 20 23 10 12 16 15 3 14 17 16 15 14 15 15 14 10 7 5 6 9 11 9 5 4 4 5 5 5 5 5 5 6
10 12 13 17 18 17 21 22 19 22 23 21 19 15 15 25 21 19 15 14 14 16 16 15 13 12 10 10 9 8 7 9 9 10 8 7 6 6 6 5 4 4 3 0
14 12 12 18 21 18 15 18 13 17 15 14 18 8 16 14 21 14 9 11 16 16 15 15 13 12 10 10 8 10 7 9 9 8 8 6 6 6 4 3 1 1 4 5
13 11 11 13 15 19 19 5 7 13 6 12 13 19 17 6 23 16 16 16 15 16 16 15 14 14 13 12 11 10 8 6 7 6 7 7 6 3 1 1 2 3 5 7
13 10 10 11 14 18 15 2 4 8 6 11 4 11 11 33 31 26 18 17 16 17 16 16 14 13 15 15 12 13 11 10 9 8 7 6 5 5 5 5 6 7 8 10
3 5 9 11 14 14 15 9 8 3 9 14 12 8 12 2 7 3 21 13 14 15 17 14 15 15 16 15 15 11 7 7 6 6 7 7 8 8 8 8 8 10 11 12
7 2 13 10 12 3 4 6 1 6 4 5 8 11 16 12 11 22 12 17 14 17 12 16 16 17 17 15 13 10 8 8 8 7 7 8 8 8 8 8 10 11 11 13
11 4 11 6 10 8 11 9 3 4 1 3 5 16 20 14 15 16 16 16 10 11 15 17 18 16 16 15 13 12 9 7 7 7 8 8 8 7 8 10 10 11 14 17
4 11 2 4 4 10 21 10 3 1 4 4 8 8 11 8 6 7 13 12 11 11 12 16 18 18 16 16 13 11 9 9 8 8 9 9 10 11 12 14 15 17 17 17
9 19 3 5 7 20 9 6 3 1 6 4 6 4 3 2 11 9 5 6 11 12 14 18 18 18 17 15 13 11 10 9 9 10 11 12 14 15 15 14 17 19 21 19
4 10 2 6 11 12 6 4 7 4 6 8 6 5 4 1 6 7 7 5 8 13 15 17 17 18 17 15 14 12 11 10 10 10 12 14 15 16 16 18 18 15 15 18
5 6 2 3 5 3 10 7 8 7 7 6 6 4 1 3 5 9 9 10 9 11 13 15 14 14 16 17 16 15 13 13 14 13 13 13 14 14 13 15 16 18 20 20
Wind_Direction
320 308 278 162 117 175 194 229 236 159 246 244 166 186 148 172 254 187 179 186 189 200 187 179 185 187 174 180 183 185 185 179 193 199 194 196 197 219 226 237 231 216 205 220
338 302 280 267 172 192 202 223 283 224 219 226 285 236 169 198 223 191 191 172 191 195 186 175 182 187 181 184 189 194 195 202 197 203 198 213 224 231 227 233 240 226 224 239
196 217 278 244 222 225 99 337 321 301 269 47 25 311 348 297 221 183 195 168 182 195 194 179 182 184 189 190 191 202 203 206 217 199 212 227 233 233 238 217 248 245 257 265
288 288 250 266 328 96 93 118 282 289 263 226 166 238 183 341 292 161 200 170 180 193 200 184 181 186 190 200 202 203 212 212 224 218 207 230 235 245 257 256 268 236 217 234
216 240 295 12 293 285 174 188 199 240 253 217 109 289 173 259 355 329 186 184 187 188 196 193 189 192 197 197 204 201 215 216 215 227 223 226 242 236 245 265 259 258 246 236
267 241 256 251 277 262 188 210 225 226 322 298 84 0 97 19 220 222 223 176 187 190 194 197 198 198 192 199 203 208 211 217 217 212 226 229 245 251 259 267 268 217 245 190
300 239 240 310 283 269 234 278 282 220 77 305 77 61 248 171 243 244 151 152 172 195 189 191 198 194 190 197 204 210 202 195 202 215 232 233 237 257 289 287 296 308 289 250
244 248 253 226 25 308 197 265 291 292 303 139 257 151 252 214 233 245 88 81 81 267 219 201 198 201 187 183 193 181 185 190 219 217 219 229 301 352 331 316 317 309 268 200
13 287 3 300 194 215 266 264 295 302 295 291 162 128 268 60 9 15 72 96 99 71 65 67 106 152 166 173 167 171 186 203 195 176 146 130 319 307 301 313 15 86 133 115
171 252 283 236 268 207 244 292 303 286 335 312 306 234 168 154 117 123 294 349 99 88 84 77 93 111 125 134 140 154 171 172 166 168 174 204 300 278 254 305 223 206 217 200
331 279 289 293 275 272 249 233 246 250 273 275 286 337 130 152 152 160 173 149 115 104 96 100 104 107 109 120 138 160 157 156 161 175 250 283 235 235 252 199 167 129 29 345
306 308 293 283 285 278 258 274 289 300 297 294 304 324 73 142 162 147 139 154 124 116 113 112 128 122 117 120 126 135 137 166 201 257 278 235 178 173 193 186 190 251 260 256
343 299 277 262 249 291 338 304 261 289 282 268 277 298 96 94 94 125 129 125 118 117 118 122 121 121 128 126 126 136 153 186 240 266 222 224 203 180 171 203 256 258 197 230
313 277 292 291 299 319 310 301 313 295 295 304 305 75 148 133 127 134 140 137 133 127 125 125 125 123 122 123 131 150 189 202 158 121 150 151 150 172 241 249 200 168 165 138
246 266 276 291 302 311 310 306 307 306 304 287 296 300 184 109 94 63 172 139 136 135 127 131 134 136 126 118 133 138 123 140 159 165 166 181 167 144 136 147 151 146 142 146
267 278 291 280 271 261 272 270 273 269 274 276 281 277 46 106 122 150 187 154 139 140 131 137 127 129 141 137 133 133 125 124 129 115 119 122 131 137 144 154 159 166 182 317
285 291 293 286 299 299 284 279 296 316 264 257 262 310 113 84 70 290 197 153 145 138 132 138 142 144 146 147 129 127 121 126 121 129 128 145 166 165 153 152 188 334 345 345
269 266 267 273 282 274 272 283 284 297 340 11 27 37 87 81 135 207 190 167 145 144 142 149 151 147 137 133 139 131 143 120 131 162 169 181 172 172 147 248 254 275 274 275
269 272 283 278 262 266 287 258 255 24 2 99 82 86 81 219 188 170 171 151 148 145 145 146 155 147 148 151 154 149 161 164 176 180 182 193 179 210 243 254 264 266 262 263
261 244 249 277 279 276 333 119 202 336 269 148 143 172 222 42 103 160 104 108 141 149 152 150 156 157 155 162 159 165 154 158 176 203 195 208 215 224 231 238 253 261 269 272
289 29 307 239 244 240 193 236 3 248 49 353 176 165 77 79 137 157 162 164 157 151 146 155 164 164 170 164 154 157 177 181 199 204 214 220 227 235 237 246 248 259 273 277
273 243 254 332 336 296 330 309 307 95 155 50 17 79 83 86 137 148 165 159 155 158 158 164 165 171 174 170 175 175 186 193 208 218 224 236 245 254 274 274 274 279 286 286
282 289 126 191 217 249 293 125 64 27 96 72 91 92 107 113 126 152 153 159 166 172 169 176 173 177 183 190 184 186 201 210 222 231 244 251 257 262 269 271 273 275 283 281
298 345 263 147 221 238 205 131 146 78 104 107 86 87 64 112 140 148 149 150 159 177 180 183 184 186 192 203 199 201 221 232 230 245 264 271 270 273 272 272 275 278 275 277
358 199 246 296 208 193 206 200 144 145 135 115 115 94 80 357 144 148 158 188 188 183 189 193 198 197 196 208 213 212 219 236 238 261 277 277 275 275 273 271 271 267 263 269
221 19 286 311 39 29 108 156 154 159 155 156 152 129 82 325 251 174 181 183 196 195 197 207 210 210 209 214 220 224 224 238 248 259 279 277 275 281 283 278 284 284 288 285
Height
1507 1505 1503 1494 1501 1514 1512 1511 1509 1491 1490 1486 1491 1495 1498 1503 1501 1499 1502 1509 1515 1519 1524 1529 1535 1539 1541 1546 1550 1555 1558 1560 1561 1563 1565 1567 1568 1570 1571 1571 1573 1571 1574 1575
1512 1517 1496 1490 1493 1495 1497 1516 1504 1489 1487 1484 1484 1486 1492 1496 1492 1493 1494 1500 1509 1515 1519 1525 1532 1536 1538 1542 1546 1551 1555 1558 1559 1562 1563 1565 1566 1568 1568 1569 1569 1569 1570 1573
1531 1506 1489 1485 1481 1486 1520 1520 1506 1493 1483 1482 1495 1495 1505 1496 1481 1483 1492 1494 1502 1509 1514 1520 1526 1531 1537 1539 1543 1546 1550 1554 1556 1559 1561 1563 1563 1565 1567 1569 1568 1569 1569 1571
1512 1488 1482 1477 1481 1488 1511 1501 1501 1503 1491 1509 1496 1525 1512 1511 1498 1475 1486 1490 1495 1503 1510 1515 1521 1527 1531 1535 1538 1541 1545 1550 1553 1556 1558 1561 1563 1565 1569 1568 1566 1565 1565 1565
1515 1496 1485 1484 1480 1474 1496 1491 1491 1490 1488 1474 1518 1512 1518 1516 1504 1504 1482 1486 1489 1496 1505 1510 1514 1520 1525 1530 1533 1537 1539 1542 1547 1551 1555 1558 1561 1561 1563 1560 1562 1549 1564 1565
1484 1481 1480 1475 1472 1470 1472 1481 1475 1470 1475 1501 1517 1520 1525 1517 1511 1499 1478 1478 1484 1491 1498 1505 1510 1515 1521 1525 1528 1531 1533 1538 1544 1548 1551 1553 1554 1554 1557 1553 1563 1537 1564 1558
1480 1475 1471 1473 1475 1467 1469 1472 1489 1504 1524 1522 1503 1520 1526 1513 1498 1484 1474 1477 1484 1490 1494 1500 1506 1511 1515 1520 1523 1526 1530 1536 1540 1543 1546 1547 1550 1552 1556 1559 1560 1558 1560 1557
1492 1496 1470 1470 1494 1510 1481 1479 1492 1510 1493 1521 1513 1516 1509 1500 1488 1492 1484 1488 1490 1495 1496 1498 1503 1506 1511 1514 1517 1520 1524 1532 1538 1539 1542 1546 1550 1554 1552 1551 1551 1552 1551 1551
1502 1493 1495 1473 1482 1477 1473 1480 1459 1473 1467 1472 1501 1498 1489 1492 1505 1495 1497 1497 1498 1497 1499 1501 1502 1506 1507 1509 1515 1520 1524 1529 1534 1536 1541 1544 1546 1544 1546 1548 1548 1548 1552 1551
1496 1516 1479 1470 1466 1462 1471 1465 1484 1475 1508 1510 1475 1476 1491 1491 1513 1510 1511 1511 1507 1504 1501 1505 1505 1506 1506 1510 1516 1520 1524 1529 1531 1536 1540 1542 1543 1544 1545 1543 1545 1549 1552 1553
1473 1480 1476 1462 1465 1468 1464 1469 1467 1466 1473 1494 1495 1473 1446 1476 1494 1493 1495 1503 1505 1504 1505 1505 1509 1511 1513 1515 1518 1522 1526 1530 1534 1537 1539 1541 1542 1543 1544 1545 1546 1548 1553 1554
1473 1476 1485 1473 1457 1453 1453 1461 1459 1477 1484 1470 1473 1479 1455 1469 1484 1489 1500 1508 1505 1505 1505 1505 1511 1512 1515 1518 1523 1527 1530 1532 1535 1535 1537 1539 1541 1543 1544 1545 1548 1550 1552 1552
1478 1483 1490 1481 1466 1457 1464 1456 1455 1459 1462 1478 1489 1483 1472 1481 1494 1502 1500 1504 1506 1507 1506 1508 1508 1512 1516 1520 1524 1527 1530 1532 1534 1535 1538 1538 1540 1542 1545 1546 1547 1548 1548 1549
1485 1485 1492 1501 1483 1472 1480 1468 1463 1468 1481 1477 1472 1477 1476 1480 1494 1506 1509 1506 1509 1510 1507 1507 1508 1512 1517 1521 1524 1527 1529 1531 1533 1535 1537 1539 1540 1542 1544 1545 1545 1547 1549 1549
1485 1494 1487 1482 1477 1474 1480 1478 1474 1476 1473 1482 1474 1470 1469 1475 1490 1504 1518 1507 1505 1508 1507 1509 1511 1514 1519 1523 1526 1527 1529 1532 1534 1536 1537 1539 1540 1541 1543 1546 1547 1548 1549 1549
1477 1487 1482 1485 1476 1475 1477 1472 1472 1473 1471 1471 1469 1470 1474 1487 1493 1498 1515 1508 1507 1510 1508 1512 1516 1519 1523 1526 1528 1530 1532 1533 1536 1537 1539 1540 1542 1543 1543 1545 1547 1548 1549 1549
1481 1484 1492 1498 1481 1478 1487 1470 1465 1464 1460 1466 1476 1469 1481 1496 1495 1521 1516 1509 1507 1508 1508 1512 1518 1522 1526 1528 1530 1532 1535 1537 1538 1540 1542 1543 1543 1545 1545 1545 1547 1547 1549 1550
1479 1484 1488 1496 1491 1507 1471 1458 1462 1465 1457 1460 1468 1485 1495 1512 1487 1504 1513 1508 1505 1507 1510 1515 1518 1522 1525 1529 1532 1533 1537 1538 1539 1542 1542 1543 1545 1545 1546 1547 1548 1548 1550 1550
1471 1477 1486 1495 1491 1477 1465 1465 1468 1471 1471 1473 1476 1482 1485 1491 1496 1499 1497 1503 1510 1509 1512 1516 1520 1524 1526 1530 1533 1535 1538 1539 1540 1542 1542 1543 1544 1546 1546 1546 1546 1547 1548 1549
1468 1472 1484 1488 1495 1499 1482 1460 1468 1470 1482 1470 1467 1471 1480 1483 1494 1502 1496 1506 1513 1513 1511 1515 1522 1524 1526 1529 1532 1535 1537 1538 1540 1541 1542 1543 1543 1545 1545 1545 1546 1546 1546 1546
1476 1485 1493 1480 1486 1477 1474 1476 1471 1487 1488 1469 1472 1470 1470 1484 1492 1498 1502 1507 1510 1510 1511 1518 1522 1524 1525 1529 1533 1536 1537 1538 1539 1540 1541 1541 1542 1542 1542 1542 1542 1543 1542 1542
1481 1484 1487 1481 1490 1495 1475 1473 1479 1482 1479 1476 1473 1476 1481 1488 1492 1498 1500 1502 1508 1511 1515 1518 1521 1523 1527 1530 1533 1535 1535 1536 1537 1538 1539 1539 1539 1540 1540 1539 1539 1539 1539 1537
1484 1475 1484 1491 1496 1488 1478 1478 1480 1479 1480 1480 1480 1483 1488 1493 1496 1499 1501 1504 1508 1512 1515 1519 1522 1525 1528 1530 1531 1533 1534 1535 1536 1537 1537 1537 1537 1537 1537 1537 1536 1536 1534 1532
1475 1478 1470 1484 1481 1482 1476 1479 1482 1480 1480 1482 1484 1487 1490 1492 1496 1500 1503 1505 1508 1512 1516 1520 1522 1524 1526 1527 1529 1531 1533 1533 1534 1534 1534 1534 1534 1533 1532 1532 1531 1530 1529 1528
1473 1477 1474 1476 1474 1474 1475 1478 1480 1481 1482 1484 1487 1490 1492 1494 1496 1500 1504 1507 1510 1512 1515 1518 1520 1521 1523 1525 1527 1529 1531 1531 1532 1532 1532 1531 1530 1529 1528 1527 1526 1525 1525 1525
1478 1483 1482 1482 1472 1472 1474 1478 1480 1483 1484 1486 1489 1492 1495 1496 1497 1498 1501 1505 1508 1510 1513 1515 1517 1519 1520 1522 1525 1527 1528 1529 1529 1529 1528 1528 1527 1526 1525 1524 1522 1521 1520 1519